Location: Hoyos del Collado
(40.3594°N, 5.2003°W)
Time: 11:01:59
(UTC+00:00)

Milstar 3 - Pass Details

Date: 18 April 2024
Orbit: 1098 x 5146 km, 28.2° (Epoch: 21 May)

Event Time Altitude Azimuth Distance (km) Brightness Sun altitude
Rises 19:48:54 0° 238° (WSW) 4,246 6.4 -9.0°
Reaches altitude 10° 19:51:28 10° 231° (SW) 3,492 5.8 -9.5°
Maximum altitude 19:59:40 42° 162° (SSE) 2,593 4.4 -10.9°
Enters shadow 20:13:03 12° 100° (E) 5,757 5.9 -13.2°
